Time,TemperatureF,DewpointF,PressureIn,WindDirection,WindDirectionDegrees,WindSpeedMPH,WindSpeedGustMPH,Humidity,HourlyPrecipIn,Conditions,Clouds,dailyrainin,SoftwareType,DateUTC
2013-04-13 00:00:00,41.3,36.8,29.74,SW,235,9.0,9.0,84,0.00,,,0.00,Wunderground v.1.12,2013-04-13 04:00:00,
2013-04-13 00:02:00,41.3,36.8,29.74,WSW,238,6.0,10.0,84,0.00,,,0.00,Wunderground v.1.12,2013-04-13 04:02:00,
2013-04-13 00:05:00,41.3,36.8,29.74,WSW,241,6.0,7.0,84,0.00,,,0.00,Wunderground v.1.12,2013-04-13 04:05:00,
2013-04-13 00:07:00,41.2,36.7,29.74,SW,215,4.0,7.0,84,0.00,,,0.00,Wunderground v.1.12,2013-04-13 04:07:00,
2013-04-13 00:14:00,41.3,36.8,29.74,WSW,244,9.0,14.0,84,0.00,,,0.00,Wunderground v.1.12,2013-04-13 04:14:00,
2013-04-13 00:20:00,41.2,36.7,29.74,WSW,240,5.0,8.0,84,0.00,,,0.00,Wunderground v.1.12,2013-04-13 04:20:00,
2013-04-13 00:25:00,41.2,37.0,29.74,SW,217,11.0,11.0,85,0.00,,,0.00,Wunderground v.1.12,2013-04-13 04:25:00,
2013-04-13 00:32:00,41.2,37.0,29.74,SW,216,8.0,8.0,85,0.00,,,0.00,Wunderground v.1.12,2013-04-13 04:32:00,
2013-04-13 00:39:00,41.2,37.0,29.74,WSW,248,6.0,7.0,85,0.00,,,0.00,Wunderground v.1.12,2013-04-13 04:39:00,
2013-04-13 00:44:00,41.1,37.2,29.75,SW,223,8.0,8.0,86,0.00,,,0.00,Wunderground v.1.12,2013-04-13 04:44:00,
2013-04-13 00:49:00,41.1,37.2,29.75,WSW,245,9.0,11.0,86,0.00,,,0.00,Wunderground v.1.12,2013-04-13 04:49:00,
2013-04-13 00:55:00,41.1,37.2,29.75,SW,233,7.0,7.0,86,0.00,,,0.00,Wunderground v.1.12,2013-04-13 04:55:00,
2013-04-13 01:01:00,41.1,37.2,29.75,SW,226,9.0,9.0,86,0.00,,,0.00,Wunderground v.1.12,2013-04-13 05:01:00,
2013-04-13 01:07:00,41.1,37.2,29.75,SW,222,4.0,11.0,86,0.00,,,0.00,Wunderground v.1.12,2013-04-13 05:07:00,
2013-04-13 01:12:00,41.2,37.3,29.75,SW,231,7.0,9.0,86,0.00,,,0.00,Wunderground v.1.12,2013-04-13 05:12:00,
2013-04-13 01:19:00,41.2,37.0,29.75,SW,231,8.0,8.0,85,0.00,,,0.00,Wunderground v.1.12,2013-04-13 05:19:00,
2013-04-13 01:24:00,41.1,36.9,29.75,WSW,240,9.0,12.0,85,0.00,,,0.00,Wunderground v.1.12,2013-04-13 05:24:00,
2013-04-13 01:30:00,40.8,36.6,29.75,WSW,250,9.0,9.0,85,0.00,,,0.00,Wunderground v.1.12,2013-04-13 05:30:00,
2013-04-13 01:37:00,40.6,36.1,29.75,WSW,252,9.0,9.0,84,0.00,,,0.00,Wunderground v.1.12,2013-04-13 05:37:00,
2013-04-13 01:44:00,40.6,36.1,29.75,SW,235,1.0,7.0,84,0.00,,,0.00,Wunderground v.1.12,2013-04-13 05:44:00,
2013-04-13 01:49:00,40.5,36.0,29.75,WSW,254,4.0,10.0,84,0.00,,,0.00,Wunderground v.1.12,2013-04-13 05:49:00,
2013-04-13 01:54:00,40.5,36.0,29.75,WSW,248,8.0,8.0,84,0.00,,,0.00,Wunderground v.1.12,2013-04-13 05:54:00,
2013-04-13 01:59:00,40.5,36.0,29.75,SW,229,2.0,13.0,84,0.00,,,0.00,Wunderground v.1.12,2013-04-13 05:59:00,
2013-04-13 02:04:00,40.5,36.0,29.75,SW,227,6.0,11.0,84,0.00,,,0.00,Wunderground v.1.12,2013-04-13 06:04:00,
2013-04-13 02:09:00,40.3,35.8,29.75,West,266,9.0,10.0,84,0.00,,,0.00,Wunderground v.1.12,2013-04-13 06:09:00,
2013-04-13 02:14:00,40.3,35.8,29.75,SW,222,9.0,13.0,84,0.00,,,0.00,Wunderground v.1.12,2013-04-13 06:14:00,
2013-04-13 02:19:00,40.2,36.1,29.75,SW,229,9.0,15.0,85,0.00,,,0.00,Wunderground v.1.12,2013-04-13 06:19:00,
2013-04-13 02:24:00,40.2,36.1,29.75,SW,220,6.0,13.0,85,0.00,,,0.00,Wunderground v.1.12,2013-04-13 06:24:00,
2013-04-13 02:29:00,40.1,36.0,29.75,WSW,238,8.0,12.0,85,0.00,,,0.00,Wunderground v.1.12,2013-04-13 06:29:00,
2013-04-13 02:35:00,39.9,36.1,29.75,SW,221,6.0,7.0,86,0.00,,,0.00,Wunderground v.1.12,2013-04-13 06:35:00,
2013-04-13 02:40:00,39.9,36.1,29.75,WSW,248,7.0,8.0,86,0.00,,,0.00,Wunderground v.1.12,2013-04-13 06:40:00,
2013-04-13 02:45:00,39.9,35.8,29.76,WSW,248,4.0,11.0,85,0.00,,,0.00,Wunderground v.1.12,2013-04-13 06:45:00,
2013-04-13 02:51:00,39.9,35.8,29.76,West,262,5.0,7.0,85,0.00,,,0.00,Wunderground v.1.12,2013-04-13 06:51:00,
2013-04-13 02:57:00,39.8,36.0,29.76,West,281,3.0,7.0,86,0.00,,,0.00,Wunderground v.1.12,2013-04-13 06:57:00,
2013-04-13 03:02:00,39.6,35.5,29.76,WSW,246,4.0,17.0,85,0.00,,,0.00,Wunderground v.1.12,2013-04-13 07:02:00,
2013-04-13 03:07:00,39.5,35.4,29.76,WNW,299,6.0,16.0,85,0.00,,,0.00,Wunderground v.1.12,2013-04-13 07:07:00,
2013-04-13 03:12:00,39.3,34.9,29.76,WSW,240,5.0,13.0,84,0.00,,,0.00,Wunderground v.1.12,2013-04-13 07:12:00,
2013-04-13 03:17:00,39.3,34.9,29.76,West,281,6.0,8.0,84,0.00,,,0.00,Wunderground v.1.12,2013-04-13 07:17:00,
2013-04-13 03:22:00,39.2,34.8,29.76,WSW,255,7.0,14.0,84,0.00,,,0.00,Wunderground v.1.12,2013-04-13 07:22:00,
2013-04-13 03:27:00,39.1,34.7,29.77,West,273,4.0,9.0,84,0.00,,,0.00,Wunderground v.1.12,2013-04-13 07:27:00,
2013-04-13 03:32:00,38.9,34.5,29.77,West,260,1.0,8.0,84,0.00,,,0.00,Wunderground v.1.12,2013-04-13 07:32:00,
2013-04-13 03:37:00,38.8,34.7,29.77,WSW,243,4.0,6.0,85,0.00,,,0.00,Wunderground v.1.12,2013-04-13 07:37:00,
2013-04-13 03:43:00,38.6,34.5,29.77,West,276,6.0,12.0,85,0.00,,,0.00,Wunderground v.1.12,2013-04-13 07:43:00,
2013-04-13 03:48:00,38.5,34.4,29.77,West,273,3.0,11.0,85,0.00,,,0.00,Wunderground v.1.12,2013-04-13 07:48:00,
2013-04-13 03:53:00,38.3,34.2,29.77,West,271,7.0,12.0,85,0.00,,,0.00,Wunderground v.1.12,2013-04-13 07:53:00,
2013-04-13 03:59:00,38.2,34.1,29.77,West,266,2.0,11.0,85,0.00,,,0.00,Wunderground v.1.12,2013-04-13 07:59:00,
2013-04-13 04:04:00,38.2,33.8,29.77,WNW,294,5.0,7.0,84,0.00,,,0.00,Wunderground v.1.12,2013-04-13 08:04:00,
2013-04-13 04:09:00,38.2,33.8,29.77,West,265,5.0,13.0,84,0.00,,,0.00,Wunderground v.1.12,2013-04-13 08:09:00,
2013-04-13 04:15:00,38.2,33.8,29.78,WSW,253,5.0,6.0,84,0.00,,,0.00,Wunderground v.1.12,2013-04-13 08:15:00,
2013-04-13 04:20:00,38.0,33.6,29.78,WSW,238,7.0,7.0,84,0.00,,,0.00,Wunderground v.1.12,2013-04-13 08:20:00,
2013-04-13 04:25:00,38.0,33.3,29.78,West,273,4.0,6.0,83,0.00,,,0.00,Wunderground v.1.12,2013-04-13 08:25:00,
2013-04-13 04:30:00,38.2,33.5,29.78,WSW,242,8.0,8.0,83,0.00,,,0.00,Wunderground v.1.12,2013-04-13 08:30:00,
2013-04-13 04:35:00,38.2,33.5,29.78,WSW,250,4.0,6.0,83,0.00,,,0.00,Wunderground v.1.12,2013-04-13 08:35:00,
2013-04-13 04:40:00,38.2,33.5,29.78,WSW,237,4.0,7.0,83,0.00,,,0.00,Wunderground v.1.12,2013-04-13 08:40:00,
2013-04-13 04:45:00,38.2,33.5,29.78,WSW,241,4.0,5.0,83,0.00,,,0.00,Wunderground v.1.12,2013-04-13 08:45:00,
2013-04-13 04:50:00,38.0,33.3,29.78,WSW,251,5.0,10.0,83,0.00,,,0.00,Wunderground v.1.12,2013-04-13 08:50:00,
2013-04-13 04:55:00,38.0,33.3,29.78,WSW,247,0.0,6.0,83,0.00,,,0.00,Wunderground v.1.12,2013-04-13 08:55:00,
2013-04-13 05:00:00,37.9,32.6,29.78,WSW,256,8.0,11.0,81,0.00,,,0.00,Wunderground v.1.12,2013-04-13 09:00:00,
2013-04-13 05:05:00,38.0,32.4,29.78,SW,228,5.0,7.0,80,0.00,,,0.00,Wunderground v.1.12,2013-04-13 09:05:00,
2013-04-13 05:10:00,38.0,32.1,29.78,WSW,258,7.0,10.0,79,0.00,,,0.00,Wunderground v.1.12,2013-04-13 09:10:00,
2013-04-13 05:16:00,38.0,31.7,29.78,WSW,248,6.0,7.0,78,0.00,,,0.00,Wunderground v.1.12,2013-04-13 09:16:00,
2013-04-13 05:21:00,38.0,31.1,29.78,WSW,247,2.0,7.0,76,0.00,,,0.00,Wunderground v.1.12,2013-04-13 09:21:00,
2013-04-13 05:26:00,38.0,30.4,29.78,WSW,250,5.0,6.0,74,0.00,,,0.00,Wunderground v.1.12,2013-04-13 09:26:00,
2013-04-13 05:31:00,38.0,30.4,29.78,WSW,249,5.0,6.0,74,0.00,,,0.00,Wunderground v.1.12,2013-04-13 09:31:00,
2013-04-13 05:36:00,38.0,30.1,29.78,WNW,289,8.0,11.0,73,0.00,,,0.00,Wunderground v.1.12,2013-04-13 09:36:00,
2013-04-13 05:42:00,38.0,29.8,29.78,WSW,258,4.0,11.0,72,0.00,,,0.00,Wunderground v.1.12,2013-04-13 09:42:00,
2013-04-13 05:47:00,38.0,29.8,29.78,WSW,243,6.0,8.0,72,0.00,,,0.00,Wunderground v.1.12,2013-04-13 09:47:00,
2013-04-13 05:52:00,38.2,29.6,29.78,West,268,8.0,12.0,71,0.00,,,0.00,Wunderground v.1.12,2013-04-13 09:52:00,
2013-04-13 05:57:00,38.2,30.0,29.77,SW,222,5.0,11.0,72,0.00,,,0.00,Wunderground v.1.12,2013-04-13 09:57:00,
2013-04-13 06:02:00,38.2,30.0,29.77,SW,231,4.0,7.0,72,0.00,,,0.00,Wunderground v.1.12,2013-04-13 10:02:00,
2013-04-13 06:07:00,38.2,30.0,29.77,WSW,252,4.0,9.0,72,0.00,,,0.00,Wunderground v.1.12,2013-04-13 10:07:00,
2013-04-13 06:12:00,38.2,30.0,29.78,West,260,4.0,10.0,72,0.00,,,0.00,Wunderground v.1.12,2013-04-13 10:12:00,
2013-04-13 06:17:00,38.2,30.3,29.78,WSW,243,4.0,10.0,73,0.00,,,0.00,Wunderground v.1.12,2013-04-13 10:17:00,
2013-04-13 06:22:00,38.0,30.1,29.78,SW,224,7.0,11.0,73,0.00,,,0.00,Wunderground v.1.12,2013-04-13 10:22:00,
2013-04-13 06:28:00,38.0,30.1,29.77,SW,214,6.0,12.0,73,0.00,,,0.00,Wunderground v.1.12,2013-04-13 10:28:00,
2013-04-13 06:34:00,38.0,30.1,29.77,West,260,6.0,8.0,73,0.00,,,0.00,Wunderground v.1.12,2013-04-13 10:34:00,
2013-04-13 06:40:00,37.9,30.4,29.77,WSW,248,5.0,5.0,74,0.00,,,0.00,Wunderground v.1.12,2013-04-13 10:40:00,
2013-04-13 06:47:00,37.9,30.4,29.77,West,262,6.0,7.0,74,0.00,,,0.00,Wunderground v.1.12,2013-04-13 10:47:00,
2013-04-13 06:52:00,37.8,30.3,29.77,WSW,248,7.0,7.0,74,0.00,,,0.00,Wunderground v.1.12,2013-04-13 10:52:00,
2013-04-13 06:57:00,37.8,30.6,29.77,SW,219,4.0,13.0,75,0.00,,,0.00,Wunderground v.1.12,2013-04-13 10:57:00,
2013-04-13 07:02:00,37.8,30.6,29.77,WSW,252,6.0,11.0,75,0.00,,,0.00,Wunderground v.1.12,2013-04-13 11:02:00,
2013-04-13 07:08:00,37.8,30.6,29.77,WSW,248,1.0,8.0,75,0.00,,,0.00,Wunderground v.1.12,2013-04-13 11:08:00,
2013-04-13 07:13:00,37.8,30.9,29.78,WSW,244,4.0,6.0,76,0.00,,,0.00,Wunderground v.1.12,2013-04-13 11:13:00,
2013-04-13 07:18:00,37.6,30.7,29.78,WSW,241,7.0,9.0,76,0.00,,,0.00,Wunderground v.1.12,2013-04-13 11:18:00,
2013-04-13 07:23:00,37.6,30.7,29.78,WSW,252,5.0,7.0,76,0.00,,,0.00,Wunderground v.1.12,2013-04-13 11:23:00,
2013-04-13 07:28:00,37.6,30.7,29.77,WSW,250,2.0,6.0,76,0.00,,,0.00,Wunderground v.1.12,2013-04-13 11:28:00,
2013-04-13 07:33:00,37.6,30.7,29.77,WSW,243,1.0,6.0,76,0.00,,,0.00,Wunderground v.1.12,2013-04-13 11:33:00,
2013-04-13 07:38:00,37.6,31.0,29.77,SW,235,4.0,9.0,77,0.00,,,0.00,Wunderground v.1.12,2013-04-13 11:38:00,
2013-04-13 07:44:00,37.6,31.0,29.78,WSW,241,1.0,5.0,77,0.00,,,0.00,Wunderground v.1.12,2013-04-13 11:44:00,
2013-04-13 07:49:00,37.6,31.0,29.78,WSW,240,4.0,6.0,77,0.00,,,0.00,Wunderground v.1.12,2013-04-13 11:49:00,
2013-04-13 07:54:00,37.8,30.9,29.78,SW,230,5.0,5.0,76,0.00,,,0.00,Wunderground v.1.12,2013-04-13 11:54:00,
2013-04-13 07:59:00,37.8,30.9,29.78,SW,230,2.0,7.0,76,0.00,,,0.00,Wunderground v.1.12,2013-04-13 11:59:00,
2013-04-13 08:05:00,37.8,30.9,29.78,SW,228,5.0,5.0,76,0.00,,,0.00,Wunderground v.1.12,2013-04-13 12:05:00,
2013-04-13 08:10:00,37.8,31.2,29.78,SW,227,4.0,6.0,77,0.00,,,0.00,Wunderground v.1.12,2013-04-13 12:10:00,
2013-04-13 08:15:00,37.9,31.3,29.78,SW,230,6.0,6.0,77,0.00,,,0.00,Wunderground v.1.12,2013-04-13 12:15:00,
2013-04-13 08:20:00,38.0,31.7,29.78,SW,227,8.0,8.0,78,0.00,,,0.00,Wunderground v.1.12,2013-04-13 12:20:00,
2013-04-13 08:25:00,38.0,31.7,29.78,SW,221,2.0,5.0,78,0.00,,,0.00,Wunderground v.1.12,2013-04-13 12:25:00,
2013-04-13 08:30:00,38.2,32.3,29.78,SW,221,6.0,6.0,79,0.00,,,0.00,Wunderground v.1.12,2013-04-13 12:30:00,
2013-04-13 08:35:00,38.2,32.6,29.78,SW,216,6.0,7.0,80,0.00,,,0.00,Wunderground v.1.12,2013-04-13 12:35:00,
2013-04-13 08:40:00,38.2,32.6,29.78,SW,236,6.0,11.0,80,0.00,,,0.00,Wunderground v.1.12,2013-04-13 12:40:00,
2013-04-13 08:45:00,38.2,32.9,29.78,SW,234,9.0,9.0,81,0.00,,,0.00,Wunderground v.1.12,2013-04-13 12:45:00,
2013-04-13 08:50:00,38.3,33.0,29.78,SW,224,5.0,9.0,81,0.00,,,0.00,Wunderground v.1.12,2013-04-13 12:50:00,
2013-04-13 08:55:00,38.3,33.0,29.78,SSW,213,8.0,12.0,81,0.00,,,0.00,Wunderground v.1.12,2013-04-13 12:55:00,
2013-04-13 09:01:00,38.3,33.0,29.78,SW,229,2.0,10.0,81,0.00,,,0.00,Wunderground v.1.12,2013-04-13 13:01:00,
2013-04-13 09:07:00,38.5,33.2,29.78,SSW,206,7.0,11.0,81,0.00,,,0.00,Wunderground v.1.12,2013-04-13 13:07:00,
2013-04-13 09:12:00,38.5,33.2,29.78,WSW,250,8.0,8.0,81,0.00,,,0.00,Wunderground v.1.12,2013-04-13 13:12:00,
2013-04-13 09:17:00,38.8,33.5,29.78,SSW,211,4.0,12.0,81,0.00,,,0.00,Wunderground v.1.12,2013-04-13 13:17:00,
2013-04-13 09:22:00,38.9,33.6,29.78,WSW,245,6.0,17.0,81,0.00,,,0.00,Wunderground v.1.12,2013-04-13 13:22:00,
2013-04-13 09:27:00,38.9,33.3,29.78,WSW,241,6.0,10.0,80,0.00,,,0.00,Wunderground v.1.12,2013-04-13 13:27:00,
2013-04-13 09:33:00,38.9,33.3,29.78,WNW,289,8.0,10.0,80,0.00,,,0.00,Wunderground v.1.12,2013-04-13 13:33:00,
2013-04-13 09:38:00,38.3,32.7,29.78,West,276,3.0,14.0,80,0.00,,,0.00,Wunderground v.1.12,2013-04-13 13:38:00,
2013-04-13 09:45:00,37.2,31.9,29.79,West,270,7.0,9.0,81,0.00,,,0.00,Wunderground v.1.12,2013-04-13 13:45:00,
2013-04-13 09:50:00,37.0,32.0,29.79,West,269,7.0,8.0,82,0.00,,,0.00,Wunderground v.1.12,2013-04-13 13:50:00,
2013-04-13 09:55:00,37.6,32.0,29.79,SW,234,9.0,9.0,80,0.00,,,0.00,Wunderground v.1.12,2013-04-13 13:55:00,
2013-04-13 10:01:00,38.3,32.0,29.78,West,279,8.0,10.0,78,0.00,,,0.00,Wunderground v.1.12,2013-04-13 14:01:00,
2013-04-13 10:06:00,38.6,31.4,29.78,West,271,5.0,12.0,75,0.00,,,0.00,Wunderground v.1.12,2013-04-13 14:06:00,
2013-04-13 10:12:00,38.8,31.2,29.78,WSW,256,8.0,10.0,74,0.00,,,0.00,Wunderground v.1.12,2013-04-13 14:12:00,
2013-04-13 10:17:00,38.9,31.0,29.78,West,269,5.0,10.0,73,0.00,,,0.00,Wunderground v.1.12,2013-04-13 14:17:00,
2013-04-13 10:24:00,38.8,30.2,29.78,SW,227,6.0,10.0,71,0.00,,,0.00,Wunderground v.1.12,2013-04-13 14:24:00,
2013-04-13 10:30:00,38.6,30.0,29.79,West,269,9.0,9.0,71,0.00,,,0.00,Wunderground v.1.12,2013-04-13 14:30:00,
2013-04-13 10:35:00,38.3,30.1,29.79,WNW,293,10.0,12.0,72,0.00,,,0.00,Wunderground v.1.12,2013-04-13 14:35:00,
2013-04-13 10:41:00,38.0,29.8,29.79,WNW,291,8.0,11.0,72,0.00,,,0.00,Wunderground v.1.12,2013-04-13 14:41:00,
2013-04-13 10:46:00,38.0,29.8,29.80,West,266,10.0,13.0,72,0.00,,,0.00,Wunderground v.1.12,2013-04-13 14:46:00,
2013-04-13 10:51:00,38.0,29.8,29.80,WSW,253,7.0,11.0,72,0.00,,,0.01,Wunderground v.1.12,2013-04-13 14:51:00,
2013-04-13 10:56:00,38.3,30.4,29.80,WSW,258,4.0,8.0,73,0.00,,,0.01,Wunderground v.1.12,2013-04-13 14:56:00,
2013-04-13 11:01:00,38.8,30.9,29.80,West,261,5.0,12.0,73,0.00,,,0.01,Wunderground v.1.12,2013-04-13 15:01:00,
2013-04-13 11:06:00,39.2,30.6,29.80,West,260,10.0,14.0,71,0.00,,,0.01,Wunderground v.1.12,2013-04-13 15:06:00,
2013-04-13 11:12:00,39.3,30.0,29.80,West,275,4.0,9.0,69,0.00,,,0.01,Wunderground v.1.12,2013-04-13 15:12:00,
2013-04-13 11:17:00,39.5,30.2,29.80,WSW,251,9.0,15.0,69,0.00,,,0.01,Wunderground v.1.12,2013-04-13 15:17:00,
2013-04-13 11:22:00,39.3,29.6,29.80,WSW,250,7.0,10.0,68,0.00,,,0.01,Wunderground v.1.12,2013-04-13 15:22:00,
2013-04-13 11:27:00,39.3,29.6,29.80,West,276,5.0,9.0,68,0.00,,,0.01,Wunderground v.1.12,2013-04-13 15:27:00,
2013-04-13 11:32:00,39.6,29.9,29.80,West,264,7.0,13.0,68,0.00,,,0.01,Wunderground v.1.12,2013-04-13 15:32:00,
2013-04-13 11:38:00,40.1,30.7,29.80,West,266,10.0,12.0,69,0.00,,,0.01,Wunderground v.1.12,2013-04-13 15:38:00,
2013-04-13 11:44:00,40.3,30.9,29.80,WNW,285,4.0,11.0,69,0.00,,,0.01,Wunderground v.1.12,2013-04-13 15:44:00,
2013-04-13 11:49:00,40.2,30.5,29.80,WSW,241,11.0,14.0,68,0.00,,,0.01,Wunderground v.1.12,2013-04-13 15:49:00,
2013-04-13 11:54:00,39.9,29.8,29.80,West,259,10.0,13.0,67,0.00,,,0.01,Wunderground v.1.12,2013-04-13 15:54:00,
2013-04-13 11:59:00,39.8,30.1,29.80,SW,229,9.0,12.0,68,0.00,,,0.01,Wunderground v.1.12,2013-04-13 15:59:00,
2013-04-13 12:04:00,39.6,29.9,29.80,WNW,295,9.0,14.0,68,0.00,,,0.01,Wunderground v.1.12,2013-04-13 16:04:00,
2013-04-13 12:09:00,39.6,29.9,29.80,WNW,296,8.0,10.0,68,0.00,,,0.01,Wunderground v.1.12,2013-04-13 16:09:00,
2013-04-13 12:14:00,39.6,30.6,29.81,WNW,283,4.0,10.0,70,0.00,,,0.01,Wunderground v.1.12,2013-04-13 16:14:00,
2013-04-13 12:20:00,39.3,30.7,29.81,West,277,3.0,6.0,71,0.00,,,0.01,Wunderground v.1.12,2013-04-13 16:20:00,
2013-04-13 12:25:00,39.2,30.9,29.81,West,269,10.0,10.0,72,0.00,,,0.01,Wunderground v.1.12,2013-04-13 16:25:00,
2013-04-13 12:30:00,38.9,30.6,29.81,WSW,241,5.0,6.0,72,0.00,,,0.01,Wunderground v.1.12,2013-04-13 16:30:00,
2013-04-13 12:35:00,38.5,30.3,29.81,West,266,5.0,8.0,72,0.00,,,0.01,Wunderground v.1.12,2013-04-13 16:35:00,
2013-04-13 12:40:00,38.2,30.3,29.81,West,270,6.0,7.0,73,0.00,,,0.01,Wunderground v.1.12,2013-04-13 16:40:00,
2013-04-13 12:45:00,38.2,30.3,29.81,West,263,7.0,7.0,73,0.00,,,0.01,Wunderground v.1.12,2013-04-13 16:45:00,
2013-04-13 12:50:00,38.0,30.1,29.81,West,273,9.0,10.0,73,0.00,,,0.01,Wunderground v.1.12,2013-04-13 16:50:00,
2013-04-13 12:55:00,38.2,30.6,29.81,WSW,256,6.0,9.0,74,0.00,,,0.01,Wunderground v.1.12,2013-04-13 16:55:00,
2013-04-13 13:00:00,38.9,31.0,29.82,WSW,239,4.0,11.0,73,0.00,,,0.01,Wunderground v.1.12,2013-04-13 17:00:00,
2013-04-13 13:05:00,39.1,30.8,29.82,WSW,255,5.0,13.0,72,0.00,,,0.01,Wunderground v.1.12,2013-04-13 17:05:00,
2013-04-13 13:10:00,39.3,30.7,29.82,West,259,7.0,13.0,71,0.00,,,0.01,Wunderground v.1.12,2013-04-13 17:10:00,
2013-04-13 13:16:00,39.5,30.2,29.82,SW,231,7.0,10.0,69,0.00,,,0.01,Wunderground v.1.12,2013-04-13 17:16:00,
2013-04-13 13:21:00,39.9,30.5,29.82,West,279,9.0,13.0,69,0.00,,,0.01,Wunderground v.1.12,2013-04-13 17:21:00,
2013-04-13 13:27:00,40.1,30.4,29.81,WSW,254,13.0,15.0,68,0.00,,,0.01,Wunderground v.1.12,2013-04-13 17:27:00,
2013-04-13 13:32:00,40.3,30.2,29.81,SW,225,7.0,18.0,67,0.00,,,0.01,Wunderground v.1.12,2013-04-13 17:32:00,
2013-04-13 13:37:00,40.5,30.0,29.81,West,261,14.0,14.0,66,0.00,,,0.01,Wunderground v.1.12,2013-04-13 17:37:00,
2013-04-13 13:42:00,40.6,30.1,29.81,SW,235,8.0,13.0,66,0.00,,,0.01,Wunderground v.1.12,2013-04-13 17:42:00,
2013-04-13 13:47:00,40.9,30.8,29.81,SW,233,7.0,13.0,67,0.00,,,0.01,Wunderground v.1.12,2013-04-13 17:47:00,
2013-04-13 13:54:00,41.5,31.0,29.81,WSW,252,6.0,13.0,66,0.00,,,0.01,Wunderground v.1.12,2013-04-13 17:54:00,
2013-04-13 14:00:00,41.8,29.7,29.81,WSW,245,11.0,11.0,62,0.00,,,0.01,Wunderground v.1.12,2013-04-13 18:00:00,
2013-04-13 14:05:00,42.2,29.7,29.81,WSW,256,10.0,11.0,61,0.00,,,0.01,Wunderground v.1.12,2013-04-13 18:05:00,
2013-04-13 14:10:00,42.6,30.5,29.81,SW,234,13.0,14.0,62,0.00,,,0.01,Wunderground v.1.12,2013-04-13 18:10:00,
2013-04-13 14:15:00,42.6,29.7,29.81,West,274,19.0,19.0,60,0.00,,,0.01,Wunderground v.1.12,2013-04-13 18:15:00,
2013-04-13 14:21:00,41.9,28.6,29.81,WSW,244,6.0,18.0,59,0.00,,,0.01,Wunderground v.1.12,2013-04-13 18:21:00,
2013-04-13 14:26:00,41.3,28.0,29.81,WSW,243,7.0,18.0,59,0.00,,,0.01,Wunderground v.1.12,2013-04-13 18:26:00,
2013-04-13 14:27:00,41.3,28.0,29.81,SW,231,13.0,18.0,59,0.00,,,0.01,Wunderground v.1.12,2013-04-13 18:27:00,
2013-04-13 14:32:00,40.9,28.1,29.81,SW,235,10.0,21.0,60,0.00,,,0.01,Wunderground v.1.12,2013-04-13 18:32:00,
2013-04-13 14:37:00,40.8,28.4,29.81,WSW,241,7.0,19.0,61,0.00,,,0.01,Wunderground v.1.12,2013-04-13 18:37:00,
2013-04-13 14:42:00,40.8,28.8,29.82,SW,230,9.0,15.0,62,0.00,,,0.01,Wunderground v.1.12,2013-04-13 18:42:00,
2013-04-13 14:47:00,40.3,28.7,29.82,WNW,285,8.0,17.0,63,0.00,,,0.01,Wunderground v.1.12,2013-04-13 18:47:00,
2013-04-13 14:52:00,40.2,29.0,29.82,WNW,286,10.0,16.0,64,0.00,,,0.01,Wunderground v.1.12,2013-04-13 18:52:00,
2013-04-13 14:57:00,40.6,29.7,29.82,WSW,246,6.0,16.0,65,0.00,,,0.01,Wunderground v.1.12,2013-04-13 18:57:00,
2013-04-13 15:02:00,41.2,30.3,29.82,WSW,254,5.0,14.0,65,0.00,,,0.01,Wunderground v.1.12,2013-04-13 19:02:00,
2013-04-13 15:07:00,41.9,31.0,29.82,WSW,255,7.0,14.0,65,0.00,,,0.01,Wunderground v.1.12,2013-04-13 19:07:00,
2013-04-13 15:12:00,42.1,30.0,29.82,West,268,17.0,17.0,62,0.00,,,0.01,Wunderground v.1.12,2013-04-13 19:12:00,
2013-04-13 15:17:00,42.2,29.7,29.82,West,278,7.0,17.0,61,0.00,,,0.01,Wunderground v.1.12,2013-04-13 19:17:00,
2013-04-13 15:22:00,42.5,29.6,29.82,SW,221,7.0,15.0,60,0.00,,,0.01,Wunderground v.1.12,2013-04-13 19:22:00,
2013-04-13 15:27:00,42.3,29.0,29.82,WSW,241,10.0,20.0,59,0.00,,,0.01,Wunderground v.1.12,2013-04-13 19:27:00,
2013-04-13 15:32:00,42.2,28.5,29.82,WSW,246,10.0,15.0,58,0.00,,,0.01,Wunderground v.1.12,2013-04-13 19:32:00,
2013-04-13 15:37:00,42.1,28.4,29.82,WNW,294,9.0,15.0,58,0.00,,,0.01,Wunderground v.1.12,2013-04-13 19:37:00,
2013-04-13 15:42:00,42.1,28.4,29.83,West,270,17.0,19.0,58,0.00,,,0.01,Wunderground v.1.12,2013-04-13 19:42:00,
2013-04-13 15:49:00,41.9,27.3,29.83,West,281,10.0,19.0,56,0.00,,,0.01,Wunderground v.1.12,2013-04-13 19:49:00,
2013-04-13 15:54:00,42.1,27.5,29.83,WSW,258,18.0,20.0,56,0.00,,,0.01,Wunderground v.1.12,2013-04-13 19:54:00,
2013-04-13 15:59:00,42.1,27.1,29.83,West,261,11.0,22.0,55,0.00,,,0.01,Wunderground v.1.12,2013-04-13 19:59:00,
2013-04-13 16:05:00,42.2,27.6,29.83,West,262,20.0,20.0,56,0.00,,,0.01,Wunderground v.1.12,2013-04-13 20:05:00,
2013-04-13 16:10:00,42.2,28.0,29.83,SW,233,8.0,11.0,57,0.00,,,0.01,Wunderground v.1.12,2013-04-13 20:10:00,
2013-04-13 16:15:00,42.2,28.5,29.83,West,264,11.0,11.0,58,0.00,,,0.01,Wunderground v.1.12,2013-04-13 20:15:00,
2013-04-13 16:20:00,41.9,27.3,29.83,SW,231,7.0,10.0,56,0.00,,,0.01,Wunderground v.1.12,2013-04-13 20:20:00,
2013-04-13 16:25:00,41.6,27.1,29.83,SSW,194,13.0,13.0,56,0.00,,,0.01,Wunderground v.1.12,2013-04-13 20:25:00,
2013-04-13 16:30:00,41.3,27.2,29.83,WNW,288,12.0,19.0,57,0.00,,,0.01,Wunderground v.1.12,2013-04-13 20:30:00,
2013-04-13 16:35:00,41.3,28.0,29.83,West,262,13.0,19.0,59,0.00,,,0.01,Wunderground v.1.12,2013-04-13 20:35:00,
2013-04-13 16:40:00,41.3,28.4,29.83,West,273,10.0,17.0,60,0.00,,,0.01,Wunderground v.1.12,2013-04-13 20:40:00,
2013-04-13 16:45:00,41.3,28.9,29.84,WNW,287,5.0,10.0,61,0.00,,,0.01,Wunderground v.1.12,2013-04-13 20:45:00,
2013-04-13 16:50:00,41.3,28.4,29.84,West,273,4.0,15.0,60,0.00,,,0.01,Wunderground v.1.12,2013-04-13 20:50:00,
2013-04-13 16:55:00,41.3,29.3,29.84,West,262,5.0,18.0,62,0.00,,,0.01,Wunderground v.1.12,2013-04-13 20:55:00,
2013-04-13 17:01:00,42.8,29.9,29.84,West,268,12.0,15.0,60,0.00,,,0.01,Wunderground v.1.12,2013-04-13 21:01:00,
2013-04-13 17:06:00,42.3,29.0,29.84,WSW,239,4.0,11.0,59,0.00,,,0.01,Wunderground v.1.12,2013-04-13 21:06:00,
2013-04-13 17:11:00,41.8,28.9,29.84,WSW,242,12.0,13.0,60,0.00,,,0.01,Wunderground v.1.12,2013-04-13 21:11:00,
2013-04-13 17:16:00,41.3,28.4,29.85,WNW,289,8.0,12.0,60,0.00,,,0.01,Wunderground v.1.12,2013-04-13 21:16:00,
2013-04-13 17:21:00,42.2,29.7,29.85,WSW,237,6.0,14.0,61,0.00,,,0.01,Wunderground v.1.12,2013-04-13 21:21:00,
2013-04-13 17:26:00,42.9,28.3,29.85,West,274,4.0,13.0,56,0.00,,,0.01,Wunderground v.1.12,2013-04-13 21:26:00,
2013-04-13 17:31:00,42.2,27.6,29.85,West,265,7.0,14.0,56,0.00,,,0.01,Wunderground v.1.12,2013-04-13 21:31:00,
2013-04-13 17:36:00,41.6,27.9,29.85,WSW,237,5.0,13.0,58,0.00,,,0.01,Wunderground v.1.12,2013-04-13 21:36:00,
2013-04-13 17:41:00,41.2,27.9,29.85,WSW,239,11.0,17.0,59,0.00,,,0.01,Wunderground v.1.12,2013-04-13 21:41:00,
2013-04-13 17:46:00,40.9,28.1,29.86,WSW,239,8.0,13.0,60,0.00,,,0.01,Wunderground v.1.12,2013-04-13 21:46:00,
2013-04-13 17:51:00,40.8,28.0,29.86,WSW,239,10.0,13.0,60,0.00,,,0.01,Wunderground v.1.12,2013-04-13 21:51:00,
2013-04-13 17:56:00,40.6,27.8,29.86,WNW,294,4.0,10.0,60,0.00,,,0.01,Wunderground v.1.12,2013-04-13 21:56:00,
2013-04-13 18:01:00,40.8,28.0,29.87,WSW,246,9.0,13.0,60,0.00,,,0.01,Wunderground v.1.12,2013-04-13 22:01:00,
2013-04-13 18:06:00,40.8,27.6,29.87,West,262,7.0,11.0,59,0.00,,,0.01,Wunderground v.1.12,2013-04-13 22:06:00,
2013-04-13 18:11:00,40.6,27.0,29.88,WSW,255,14.0,14.0,58,0.00,,,0.01,Wunderground v.1.12,2013-04-13 22:11:00,
2013-04-13 18:16:00,40.5,26.4,29.88,WSW,251,11.0,18.0,57,0.00,,,0.01,Wunderground v.1.12,2013-04-13 22:16:00,
2013-04-13 18:21:00,40.5,26.0,29.88,NW,304,8.0,14.0,56,0.00,,,0.01,Wunderground v.1.12,2013-04-13 22:21:00,
2013-04-13 18:26:00,40.5,26.0,29.88,WSW,246,9.0,16.0,56,0.00,,,0.01,Wunderground v.1.12,2013-04-13 22:26:00,
2013-04-13 18:31:00,40.3,25.8,29.88,WNW,295,15.0,16.0,56,0.00,,,0.01,Wunderground v.1.12,2013-04-13 22:31:00,
2013-04-13 18:37:00,40.2,25.7,29.88,West,262,14.0,14.0,56,0.00,,,0.01,Wunderground v.1.12,2013-04-13 22:37:00,
2013-04-13 18:42:00,40.1,26.1,29.89,NW,307,8.0,12.0,57,0.00,,,0.01,Wunderground v.1.12,2013-04-13 22:42:00,
2013-04-13 18:47:00,40.1,26.1,29.89,WNW,286,3.0,12.0,57,0.00,,,0.01,Wunderground v.1.12,2013-04-13 22:47:00,
2013-04-13 18:52:00,40.1,26.5,29.89,West,273,7.0,8.0,58,0.00,,,0.01,Wunderground v.1.12,2013-04-13 22:52:00,
2013-04-13 18:57:00,39.9,26.3,29.89,WNW,285,5.0,8.0,58,0.00,,,0.01,Wunderground v.1.12,2013-04-13 22:57:00,
2013-04-13 19:02:00,39.8,27.0,29.89,WSW,256,7.0,13.0,60,0.00,,,0.01,Wunderground v.1.12,2013-04-13 23:02:00,
2013-04-13 19:07:00,39.6,27.6,29.89,WNW,297,5.0,14.0,62,0.00,,,0.01,Wunderground v.1.12,2013-04-13 23:07:00,
2013-04-13 19:12:00,39.5,27.9,29.89,NW,308,11.0,11.0,63,0.00,,,0.01,Wunderground v.1.12,2013-04-13 23:12:00,
2013-04-13 19:17:00,39.3,28.1,29.89,WSW,240,8.0,10.0,64,0.00,,,0.01,Wunderground v.1.12,2013-04-13 23:17:00,
2013-04-13 19:22:00,39.2,28.0,29.89,WSW,238,8.0,10.0,64,0.00,,,0.01,Wunderground v.1.12,2013-04-13 23:22:00,
2013-04-13 19:27:00,39.1,27.9,29.90,NNW,335,3.0,13.0,64,0.00,,,0.01,Wunderground v.1.12,2013-04-13 23:27:00,
2013-04-13 19:32:00,39.1,27.9,29.90,WSW,248,6.0,7.0,64,0.00,,,0.01,Wunderground v.1.12,2013-04-13 23:32:00,
2013-04-13 19:37:00,38.9,28.1,29.90,WSW,257,4.0,9.0,65,0.00,,,0.01,Wunderground v.1.12,2013-04-13 23:37:00,
2013-04-13 19:42:00,38.9,28.1,29.90,West,281,0.0,8.0,65,0.00,,,0.01,Wunderground v.1.12,2013-04-13 23:42:00,
2013-04-13 19:47:00,38.9,28.1,29.90,West,260,4.0,7.0,65,0.00,,,0.01,Wunderground v.1.12,2013-04-13 23:47:00,
2013-04-13 19:52:00,38.8,28.0,29.90,WNW,286,3.0,8.0,65,0.00,,,0.01,Wunderground v.1.12,2013-04-13 23:52:00,
2013-04-13 19:57:00,38.8,27.7,29.90,West,276,4.0,8.0,64,0.00,,,0.01,Wunderground v.1.12,2013-04-13 23:57:00,
2013-04-13 20:02:00,38.8,28.0,29.90,West,271,2.0,7.0,65,0.00,,,0.01,Wunderground v.1.12,2013-04-14 00:02:00,
2013-04-13 20:09:00,38.6,27.8,29.90,WSW,258,5.0,7.0,65,0.00,,,0.01,Wunderground v.1.12,2013-04-14 00:09:00,
2013-04-13 20:14:00,38.6,27.8,29.91,West,280,6.0,6.0,65,0.00,,,0.01,Wunderground v.1.12,2013-04-14 00:14:00,
2013-04-13 20:19:00,38.6,27.8,29.91,West,260,4.0,9.0,65,0.00,,,0.01,Wunderground v.1.12,2013-04-14 00:19:00,
2013-04-13 20:24:00,38.6,27.8,29.91,WSW,239,5.0,5.0,65,0.00,,,0.01,Wunderground v.1.12,2013-04-14 00:24:00,
2013-04-13 20:29:00,38.6,27.8,29.91,WSW,255,4.0,7.0,65,0.00,,,0.01,Wunderground v.1.12,2013-04-14 00:29:00,
2013-04-13 20:34:00,38.6,27.8,29.91,West,271,5.0,8.0,65,0.00,,,0.01,Wunderground v.1.12,2013-04-14 00:34:00,
2013-04-13 20:39:00,38.5,27.7,29.91,West,270,4.0,9.0,65,0.00,,,0.01,Wunderground v.1.12,2013-04-14 00:39:00,
2013-04-13 20:44:00,38.6,27.8,29.91,West,276,2.0,7.0,65,0.00,,,0.01,Wunderground v.1.12,2013-04-14 00:44:00,
2013-04-13 20:49:00,38.5,27.7,29.91,West,271,5.0,6.0,65,0.00,,,0.01,Wunderground v.1.12,2013-04-14 00:49:00,
2013-04-13 20:54:00,38.5,27.7,29.91,West,270,0.0,5.0,65,0.00,,,0.01,Wunderground v.1.12,2013-04-14 00:54:00,
2013-04-13 20:59:00,38.5,27.7,29.92,West,269,4.0,8.0,65,0.00,,,0.01,Wunderground v.1.12,2013-04-14 00:59:00,
2013-04-13 21:04:00,38.5,27.7,29.92,West,269,1.0,6.0,65,0.00,,,0.01,Wunderground v.1.12,2013-04-14 01:04:00,
2013-04-13 21:10:00,38.5,27.7,29.92,West,269,2.0,2.0,65,0.00,,,0.01,Wunderground v.1.12,2013-04-14 01:10:00,
2013-04-13 21:15:00,38.5,27.7,29.93,West,268,2.0,2.0,65,0.00,,,0.01,Wunderground v.1.12,2013-04-14 01:15:00,
2013-04-13 21:20:00,38.5,27.7,29.93,West,268,6.0,6.0,65,0.00,,,0.01,Wunderground v.1.12,2013-04-14 01:20:00,
2013-04-13 21:25:00,38.6,27.8,29.93,West,260,5.0,5.0,65,0.00,,,0.01,Wunderground v.1.12,2013-04-14 01:25:00,
2013-04-13 21:30:00,38.6,27.8,29.93,West,260,0.0,4.0,65,0.00,,,0.01,Wunderground v.1.12,2013-04-14 01:30:00,
2013-04-13 21:35:00,38.6,27.8,29.93,West,260,1.0,4.0,65,0.00,,,0.01,Wunderground v.1.12,2013-04-14 01:35:00,
2013-04-13 21:40:00,38.5,27.7,29.93,West,261,5.0,6.0,65,0.00,,,0.01,Wunderground v.1.12,2013-04-14 01:40:00,
2013-04-13 21:45:00,38.5,27.7,29.93,West,261,4.0,5.0,65,0.00,,,0.01,Wunderground v.1.12,2013-04-14 01:45:00,
2013-04-13 21:50:00,38.5,27.7,29.93,WSW,248,4.0,7.0,65,0.00,,,0.01,Wunderground v.1.12,2013-04-14 01:50:00,
2013-04-13 21:55:00,38.6,27.8,29.93,WSW,250,2.0,4.0,65,0.00,,,0.01,Wunderground v.1.12,2013-04-14 01:55:00,
2013-04-13 22:00:00,38.6,27.8,29.93,WSW,249,4.0,4.0,65,0.00,,,0.01,Wunderground v.1.12,2013-04-14 02:00:00,
2013-04-13 22:05:00,38.5,27.7,29.93,WSW,249,1.0,2.0,65,0.00,,,0.01,Wunderground v.1.12,2013-04-14 02:05:00,
2013-04-13 22:11:00,38.5,28.1,29.93,WSW,249,2.0,4.0,66,0.00,,,0.01,Wunderground v.1.12,2013-04-14 02:11:00,
2013-04-13 22:16:00,38.3,27.9,29.94,WSW,249,4.0,5.0,66,0.00,,,0.01,Wunderground v.1.12,2013-04-14 02:16:00,
2013-04-13 22:21:00,38.3,28.3,29.94,WSW,249,2.0,2.0,67,0.00,,,0.01,Wunderground v.1.12,2013-04-14 02:21:00,
2013-04-13 22:25:00,38.2,28.2,29.94,WSW,249,1.0,2.0,67,0.00,,,0.01,Wunderground v.1.12,2013-04-14 02:25:00,
2013-04-13 22:30:00,38.2,28.2,29.94,WSW,249,4.0,4.0,67,0.00,,,0.01,Wunderground v.1.12,2013-04-14 02:30:00,
2013-04-13 22:35:00,38.2,28.2,29.94,WSW,250,2.0,4.0,67,0.00,,,0.01,Wunderground v.1.12,2013-04-14 02:35:00,
2013-04-13 22:40:00,38.2,28.2,29.94,WSW,250,0.0,2.0,67,0.00,,,0.01,Wunderground v.1.12,2013-04-14 02:40:00,
2013-04-13 22:45:00,38.2,28.2,29.95,WSW,249,0.0,2.0,67,0.00,,,0.01,Wunderground v.1.12,2013-04-14 02:45:00,
2013-04-13 22:51:00,38.0,28.0,29.95,WSW,249,0.0,2.0,67,0.00,,,0.01,Wunderground v.1.12,2013-04-14 02:51:00,
2013-04-13 22:56:00,38.0,28.0,29.95,WSW,250,0.0,2.0,67,0.00,,,0.01,Wunderground v.1.12,2013-04-14 02:56:00,
2013-04-13 23:01:00,38.0,28.0,29.95,WSW,249,0.0,4.0,67,0.00,,,0.01,Wunderground v.1.12,2013-04-14 03:01:00,
2013-04-13 23:06:00,38.0,28.0,29.95,WSW,249,0.0,2.0,67,0.00,,,0.01,Wunderground v.1.12,2013-04-14 03:06:00,
2013-04-13 23:11:00,38.0,28.0,29.95,WSW,249,1.0,6.0,67,0.00,,,0.01,Wunderground v.1.12,2013-04-14 03:11:00,
2013-04-13 23:16:00,38.2,28.2,29.95,WSW,249,2.0,2.0,67,0.00,,,0.01,Wunderground v.1.12,2013-04-14 03:16:00,
2013-04-13 23:21:00,38.2,28.2,29.95,WSW,249,1.0,4.0,67,0.00,,,0.01,Wunderground v.1.12,2013-04-14 03:21:00,
2013-04-13 23:27:00,38.2,28.2,29.95,WSW,249,4.0,4.0,67,0.00,,,0.01,Wunderground v.1.12,2013-04-14 03:27:00,
2013-04-13 23:32:00,38.3,27.9,29.95,WSW,249,1.0,3.0,66,0.00,,,0.01,Wunderground v.1.12,2013-04-14 03:32:00,
2013-04-13 23:37:00,38.3,27.9,29.95,WSW,249,1.0,4.0,66,0.00,,,0.01,Wunderground v.1.12,2013-04-14 03:37:00,
2013-04-13 23:42:00,38.3,27.9,29.95,WSW,250,0.0,4.0,66,0.00,,,0.01,Wunderground v.1.12,2013-04-14 03:42:00,
2013-04-13 23:47:00,38.3,27.9,29.95,WSW,249,1.0,2.0,66,0.00,,,0.01,Wunderground v.1.12,2013-04-14 03:47:00,
2013-04-13 23:52:00,38.3,27.9,29.95,WSW,249,2.0,4.0,66,0.00,,,0.01,Wunderground v.1.12,2013-04-14 03:52:00,
2013-04-13 23:57:00,38.3,27.9,29.96,WSW,249,1.0,2.0,66,0.00,,,0.01,Wunderground v.1.12,2013-04-14 03:57:00,